Showing default

TJS-14, 62804

Orbit data source: Space-Track

TJS-14, 62804 is a payload satellite owned by PLA SSF (CN) in GEO that was launched on Thu, 23 Jan 2025 UTC via a CHANG ZHENG 3B launch vehicle from the Xichang Space Center, China (XSC). Payload-class satellites include a variety of spacecraft equipped with specific instruments for various scientific and technological missions. These include communications satellites like Starlink; space stations such as the ISS; scientific satellites like the Hubble; Earth observation satellites from companies like Planet Labs, Umbra, and HawkEye 360; GPS; miniature CubeSats for education and research; and military/defense satellites.

Not visible in the next 10 days
Identifier
62804, 2025-017A
Orbit
GEO
Last TLE update
9 hours ago
Origin
Manufacturer
SISE
Mission
Operational Defense Sigint
Bus & Motor
FY-4?, LAE
Mass
~5,000 kg wet, ~2,500 kg dry
Launch date (UTC)
2025-01-23 (5 months ago)
Launch vehicle
CHANG ZHENG 3B
Launch site
Xichang Space Center, China (XSC)
Object type
Payload
Rocket body
Debris
Shape & HBR
Box + 2 Pan, 30 m
Radar Cross Section
34.063 m², Large (>1 m²)

Expand to show TLE details & history

TLE from 9 hours ago
0 TJS-14
1 62804U 25017A   25182.85642054  .00000121  00000-0  00000+0 0  9990
2 62804   1.6307 285.2980 0001420 266.8392  54.6617  1.00273681  1756
Epoch: 2025-07-01T20:33Z
TLE epoch observation values (Epoch: 2025-07-01T20:33:14.734Z)
Latitude
-1.03025°
Longitude
18.3753°
Altitude
35,782.247 km
Speed
3.075 km/s
True Right ascension
16h 27m 19s
True Declination
-1° 01' 45"
Sunlit
Object was in daylight at epoch
Visualization orbit readout
Latitude
1.60588°
Longitude
157.74149°
Altitude
35,791.103 km
Speed
3.074 km/s
Apparent Right ascension
02h 05m 36s
Apparent Declination
-3° 40' 18"
Sunlit
Object is in daylight
Visualization observer readout
Local Sidereal Time
17:30:54
Azimuth
65.744° ENE
Elevation
-31.293°
Doppler factor
1
Orbital elements
Apogee altitude
35,793.12 km
Perigee altitude
35,781.145 km
Semi-major axis
42,165.27 km
Eccentricity
0.00014
Inclination
1.6307°
RAAN
285.298°
Arg. of periapsis
266.8392°
True anomaly
Unknown
Mean anomaly
54.6617°
Eccentric anomaly
Unknown
Mean motion
0.25067 °/min
Orbital period
1,436.12 mins
BSTAR
0
Loading historical data...
62804 neighbors
Loading maneuver chart data...
Loading SW <> Apogee altitude chart data...
Loading historical data...
Loading historical data...
Loading historical data...
Loading historical data...
Loading historical data...
Loading historical data...
Loading historical data...
Other satellites on launch #17 in the year 2025 (2025-01-23 UTC)

TJS-14 Visibility

Observer location: undefined°, undefined°

TJS-14 is likely not visible in the next few days
Span
Click to sort rows by Start time (UTC) header in descending order
Start Az.
Max El. time (UTC)
Max El. Az.
Max El.
End time (UTC)
End Az.
|